Temperature
25 23 22 22 23 24 24 25 25 25 26 25 24 23 22 22 22 20 19 19 19 19 19 19 18 18 18 18 18 18 18 18 18 18 18 17 17 17 17 17 17 17 17 17
23 22 24 25 26 26 25 25 25 26 26 25 23 22 22 21 21 21 20 19 19 19 18 18 18 18 17 17 17 18 17 18 18 18 18 18 18 17 17 17 17 17 17 17
23 24 26 27 26 26 26 26 26 26 25 24 23 21 21 21 21 21 20 20 19 19 18 18 18 17 17 17 17 17 17 17 18 18 17 17 17 17 17 17 17 17 16 16
23 25 26 26 26 27 25 27 27 26 23 21 22 20 20 20 20 20 20 19 19 18 18 18 18 18 18 17 17 17 18 17 17 17 17 17 17 17 17 17 17 16 16 16
23 25 26 26 27 28 26 27 25 24 22 20 20 20 19 19 19 19 19 19 19 19 19 18 18 18 18 18 17 17 17 17 17 17 17 17 17 17 17 17 16 16 16 16
25 26 27 27 28 28 27 25 22 20 19 20 20 20 19 19 19 19 19 19 19 19 19 18 18 18 17 17 17 17 17 17 17 17 17 17 17 17 17 17 16 16 16 16
24 25 26 27 26 26 26 23 21 21 19 19 19 20 19 20 20 20 20 20 19 19 19 18 18 18 18 17 17 17 17 17 17 17 17 17 17 17 17 17 17 16 16 16
22 23 25 27 26 25 25 23 21 21 20 19 19 19 20 21 21 21 21 20 19 19 19 19 19 18 18 18 17 17 17 17 17 17 17 17 17 17 17 17 17 17 16 16
22 23 26 27 27 26 25 23 21 20 20 19 19 19 20 21 21 21 20 20 19 19 19 19 19 19 18 18 18 18 17 17 17 17 17 17 17 17 17 17 17 17 16 16
22 23 25 26 26 26 25 23 20 19 19 20 20 20 19 20 20 20 20 20 20 19 19 19 19 19 19 18 18 18 18 18 18 17 17 17 17 17 17 17 17 17 16 16
22 22 23 24 24 24 24 23 21 18 19 19 19 19 21 20 20 20 20 20 20 20 20 19 19 19 19 19 18 18 18 18 18 18 17 17 17 17 17 17 17 17 16 16
21 19 20 22 23 24 23 22 20 20 20 19 18 19 22 20 20 20 20 21 21 20 20 20 20 19 19 19 18 18 18 18 18 18 18 17 17 17 17 17 17 16 16 16
21 19 19 20 21 22 22 22 21 19 18 18 19 20 21 19 19 20 20 21 21 21 21 20 20 19 19 19 19 18 18 18 18 18 18 18 17 17 17 17 17 16 16 16
21 18 19 20 20 21 22 22 21 19 18 19 19 20 20 19 19 20 20 21 21 21 21 20 20 20 19 19 19 19 19 19 18 18 18 18 18 17 17 17 17 16 16 16
19 19 19 19 21 21 22 22 22 20 20 20 20 20 20 19 19 20 21 20 20 20 20 20 20 20 20 20 19 19 19 19 18 18 18 18 18 17 17 17 17 17 16 16
17 18 18 19 21 21 21 22 21 21 21 21 20 20 19 19 20 20 20 20 20 20 20 20 20 20 20 20 20 20 20 19 19 19 18 18 18 18 17 17 17 17 16 16
16 17 17 18 19 20 19 20 20 20 20 20 20 19 19 18 18 19 19 19 19 20 21 21 21 21 20 20 20 20 20 20 19 19 19 18 18 18 18 17 17 17 16 16
16 16 15 16 18 18 19 19 20 20 19 19 19 19 19 18 19 19 20 20 20 20 20 21 21 21 21 21 20 20 20 20 19 19 19 18 18 18 18 17 17 17 17 16
15 15 15 16 17 18 19 19 19 18 18 17 17 18 18 18 18 18 19 19 20 20 20 21 21 21 21 21 21 20 20 20 19 19 19 18 18 18 18 17 17 17 17 16
15 15 15 16 17 17 18 19 19 19 17 17 17 17 17 17 17 16 17 18 19 19 20 20 20 20 20 20 20 20 20 19 19 19 19 19 18 18 18 17 17 17 16 16
15 15 15 15 16 17 17 18 19 18 17 16 16 16 16 15 16 16 17 18 18 19 19 19 19 19 19 19 20 19 19 19 19 19 18 18 18 18 17 17 17 17 16 16
14 14 15 15 15 16 16 17 16 16 15 15 15 16 16 16 16 16 17 17 17 18 18 18 18 18 18 19 19 18 18 18 18 18 18 18 17 17 17 17 16 16 16 16
14 14 13 14 14 14 15 15 16 15 15 15 15 16 16 15 15 15 16 16 16 17 17 17 17 17 17 17 18 17 17 17 17 17 17 17 17 16 16 16 16 16 15 15
14 14 13 13 14 14 15 15 15 15 15 15 16 16 16 15 15 15 15 15 16 16 16 16 16 16 16 16 16 16 16 16 16 16 16 16 16 16 15 15 15 15 15 14
14 14 13 13 14 14 14 15 15 15 15 15 15 15 15 15 15 15 15 15 15 16 16 16 16 15 15 15 15 15 15 15 15 15 15 15 15 15 15 15 14 14 14 14
13 13 13 13 14 13 13 14 15 15 14 15 14 14 14 15 14 15 15 15 15 15 15 15 15 14 14 14 14 14 14 15 14 14 14 14 14 14 14 14 13 13 13 13
Wind_Speed
4 2 7 11 10 11 10 11 11 9 4 2 3 4 6 6 8 8 8 8 8 7 6 6 8 10 12 12 12 12 13 12 10 8 8 7 6 5 4 5 9 11 10 10
3 9 15 12 12 13 14 12 9 5 1 2 2 1 3 5 7 9 10 9 9 7 7 7 8 9 12 13 12 12 11 11 10 8 7 6 6 4 4 4 6 10 10 10
10 12 10 12 14 14 13 8 6 4 1 5 4 3 1 2 3 5 8 8 10 12 12 10 9 8 11 13 13 14 12 11 10 9 7 7 5 4 3 4 3 5 9 9
9 14 14 14 13 10 9 7 4 2 3 2 2 1 5 3 2 4 6 7 9 10 12 11 10 10 10 11 12 11 12 11 10 10 10 11 8 6 5 5 4 4 8 9
8 8 8 12 13 9 7 4 2 2 4 3 4 2 6 3 4 6 6 7 10 11 13 13 13 12 11 11 11 11 11 10 9 9 10 10 8 5 5 5 6 5 4 7
13 12 9 11 12 7 5 2 5 6 5 2 2 1 6 4 7 6 7 8 10 12 12 12 11 10 9 10 10 11 11 10 9 10 10 10 10 9 9 7 7 5 3 3
10 12 9 8 8 8 2 3 4 5 5 3 3 2 7 7 6 8 9 10 12 13 13 12 12 11 11 11 12 11 12 10 10 10 10 10 10 11 11 9 8 6 4 3
6 9 7 4 5 6 4 7 6 5 4 3 2 4 7 7 5 7 8 10 11 12 13 14 14 14 13 13 13 13 12 10 10 10 10 9 10 9 8 8 7 7 6 5
7 8 6 5 3 3 2 3 7 6 3 1 4 5 8 3 1 5 8 11 13 13 14 15 14 14 14 15 14 14 14 11 10 10 9 9 9 9 9 9 8 6 6 6
9 6 7 5 3 3 4 4 5 5 4 2 4 4 5 5 5 6 10 12 13 13 13 14 14 14 14 14 14 13 13 12 10 10 10 10 9 9 9 9 9 8 8 7
4 5 6 4 1 4 2 1 4 4 5 6 4 6 6 8 8 9 10 12 12 13 15 14 14 14 14 14 14 14 13 11 10 11 9 9 9 9 9 9 9 9 8 9
2 4 3 6 5 3 4 4 6 5 4 5 5 7 5 7 8 8 9 11 12 13 14 15 15 14 14 15 15 15 14 13 12 11 10 10 9 9 9 9 9 9 9 9
2 5 2 6 6 5 1 1 3 4 4 4 5 6 2 1 3 5 7 10 11 11 12 13 14 14 16 16 16 16 15 14 12 11 11 10 10 10 10 10 9 9 10 9
3 4 5 6 7 4 2 3 1 4 3 4 6 5 3 3 4 5 6 9 10 10 11 13 13 14 16 16 17 16 15 15 14 12 12 12 12 12 11 10 10 10 10 10
4 2 2 4 4 2 2 3 2 3 5 6 6 6 8 8 7 6 5 6 7 9 10 13 13 13 14 15 15 16 15 15 15 14 13 13 12 11 10 10 10 9 10 10
3 2 2 4 4 4 4 3 3 4 3 3 3 4 5 5 3 4 5 6 7 7 10 12 14 14 15 16 16 16 16 16 15 15 14 13 11 11 11 11 11 10 9 9
1 2 1 3 4 4 4 3 1 2 1 3 3 4 2 2 3 6 6 7 7 5 7 10 13 14 15 16 16 16 16 14 14 14 14 13 13 12 12 13 11 12 11 10
4 3 3 1 2 4 6 2 1 2 2 2 1 1 3 5 4 2 2 4 5 5 6 9 10 12 12 12 13 14 13 14 14 14 13 13 13 13 12 11 12 12 10 10
5 6 3 3 3 4 4 1 1 2 1 3 3 3 3 5 5 3 2 1 3 5 5 5 7 8 9 9 11 11 11 11 12 12 12 13 13 13 12 12 11 9 8 8
3 4 4 3 3 4 5 4 3 2 0 2 5 5 3 4 3 1 2 4 3 2 3 4 5 6 6 7 9 11 11 11 11 11 11 10 11 11 11 11 10 7 8 9
4 3 2 3 3 4 4 5 3 2 3 1 2 4 4 3 2 1 3 5 6 7 5 7 8 7 4 5 8 9 8 8 8 8 7 7 8 10 10 9 8 7 8 8
1 0 1 2 3 4 6 4 1 3 2 2 1 3 6 6 6 5 5 6 7 8 9 9 9 8 6 5 8 8 5 4 4 5 6 6 6 7 6 7 7 7 7 7
2 3 2 2 3 3 3 1 1 1 2 2 2 4 8 8 7 6 6 7 8 8 9 9 10 9 8 7 7 7 3 4 6 6 5 4 4 4 4 5 5 4 4 5
1 1 2 1 2 2 4 4 2 3 3 3 4 6 9 9 7 7 7 7 8 8 8 9 11 11 9 7 7 6 4 5 7 6 5 4 4 3 3 3 3 4 4 4
2 1 1 1 1 2 4 2 2 5 7 8 7 8 10 11 8 8 8 8 8 8 8 9 10 10 9 8 8 8 7 7 7 5 4 4 3 3 2 2 2 3 4 5
1 3 3 3 4 3 1 1 5 8 7 8 11 12 11 11 11 10 9 8 8 9 8 9 10 10 9 8 8 7 7 7 6 6 5 3 3 2 2 2 2 2 1 2
Wind_Direction
251 187 240 238 224 232 255 271 278 274 261 168 193 183 180 177 165 161 162 167 167 172 173 162 160 163 160 161 158 160 159 156 150 148 148 148 151 152 151 157 154 149 152 153
301 257 246 247 253 255 257 265 274 289 302 104 127 90 159 178 183 178 174 173 169 160 151 155 153 149 154 159 158 157 163 159 159 156 153 151 147 151 151 147 147 152 152 151
228 249 257 256 260 261 263 247 239 236 59 52 90 21 328 210 191 184 176 172 165 164 161 158 155 152 149 154 161 164 164 163 161 153 138 134 119 112 120 137 146 156 153 148
246 254 260 266 266 258 266 257 209 153 90 354 68 215 266 239 239 200 185 175 167 165 161 158 158 160 159 159 161 161 162 159 158 154 152 155 156 158 168 162 154 152 146 142
245 253 260 267 265 263 254 247 130 119 119 69 19 113 280 238 231 224 204 186 171 168 166 166 169 170 167 163 160 161 160 159 160 159 161 160 158 156 148 144 145 146 140 141
251 265 258 259 270 260 239 53 43 52 70 38 290 180 272 240 226 217 199 185 176 171 171 168 167 163 161 161 160 163 163 165 166 164 164 162 160 155 152 157 160 157 147 141
273 276 265 257 285 302 323 85 19 354 11 262 255 227 251 249 232 208 197 188 183 173 172 172 169 169 169 168 169 169 167 168 170 168 168 169 166 162 166 168 169 163 160 165
236 277 268 253 223 236 250 151 169 208 223 257 287 247 262 261 241 211 191 175 173 176 176 179 179 175 176 176 173 171 171 172 173 171 172 169 162 164 170 172 169 174 179 179
204 247 265 267 262 179 239 211 178 149 145 135 264 277 296 283 243 177 175 171 175 180 181 182 181 179 178 177 177 175 174 176 176 172 168 166 163 163 169 171 169 175 178 176
184 235 276 282 5 350 163 174 98 112 147 227 268 260 247 243 209 185 182 182 183 180 179 181 183 183 181 178 177 176 177 179 176 172 173 174 170 170 170 168 173 177 178 171
162 190 290 338 205 240 323 45 122 130 153 161 220 256 232 208 199 192 198 193 186 183 184 183 184 183 180 175 176 178 180 178 178 177 176 171 174 171 167 172 178 177 175 170
114 134 251 264 259 218 191 195 156 160 211 171 178 255 267 195 189 186 200 198 191 189 186 184 182 179 178 178 179 181 182 183 184 180 178 177 176 172 171 177 178 174 172 173
90 103 44 337 337 347 18 182 147 139 139 164 173 250 300 153 199 194 203 200 192 189 183 180 178 179 182 182 183 184 185 187 186 181 180 180 180 179 180 181 177 173 171 172
105 113 156 201 237 245 270 274 144 123 155 195 206 220 255 232 238 230 207 195 186 185 182 180 183 184 185 186 185 185 187 187 186 184 184 186 188 187 185 181 178 177 176 177
78 114 201 234 251 261 251 244 214 200 188 189 219 208 223 213 211 210 194 173 171 179 183 185 187 188 186 186 187 186 188 187 187 186 189 192 191 186 182 181 182 181 183 187
74 116 34 337 332 331 304 288 238 243 224 211 201 236 241 221 195 188 192 174 172 185 188 189 189 189 188 189 189 187 187 187 184 187 192 191 187 186 189 189 188 186 190 190
123 121 95 294 321 354 300 273 223 234 264 175 205 238 200 172 192 196 199 188 184 191 195 188 190 194 193 192 189 189 189 183 183 189 192 191 189 191 196 196 191 194 196 194
147 132 149 187 33 246 245 251 124 137 15 37 55 214 168 168 165 149 177 172 191 203 200 197 195 195 196 192 190 186 181 180 184 188 191 192 193 197 198 194 195 199 199 200
151 152 151 157 195 263 290 310 185 154 360 17 72 75 81 95 88 30 12 100 208 208 186 186 185 182 182 182 179 169 172 177 182 188 191 191 192 194 194 197 199 199 196 201
60 115 135 155 170 221 255 294 304 114 248 20 90 92 84 71 110 279 10 50 37 45 121 133 137 134 151 167 157 156 168 170 180 186 186 185 185 186 191 195 196 195 198 206
5 23 127 176 201 242 278 316 14 136 236 298 131 125 103 84 145 169 64 62 50 49 70 98 105 108 126 140 135 145 158 179 191 180 171 172 178 186 191 192 193 195 198 202
182 67 214 164 194 250 331 0 129 206 210 157 116 105 104 96 88 80 79 77 68 59 62 78 88 84 76 100 124 129 150 176 152 143 153 170 181 188 189 184 191 192 192 198
194 195 198 193 217 287 332 320 307 143 137 120 104 116 107 90 84 82 78 77 74 70 68 73 85 84 74 77 102 115 132 122 114 118 132 144 143 147 148 162 176 177 183 194
278 152 145 239 279 329 355 7 36 98 100 91 106 111 104 101 96 85 82 82 82 76 73 74 80 80 71 67 74 82 80 97 106 113 117 120 121 123 130 145 156 166 181 195
239 185 165 228 241 35 6 12 70 85 84 82 86 88 98 100 97 96 91 81 79 81 76 77 82 79 71 66 65 61 62 74 81 83 86 93 106 123 130 136 158 179 206 204
242 189 177 218 210 160 211 115 103 102 92 91 92 84 76 84 91 89 83 77 78 78 78 78 77 77 72 70 66 58 61 74 79 75 68 69 75 87 97 96 57 7 278 251
Height
1483 1489 1494 1489 1487 1487 1487 1488 1487 1478 1468 1472 1477 1479 1479 1479 1481 1483 1485 1486 1487 1488 1489 1490 1490 1491 1494 1498 1503 1509 1514 1518 1523 1526 1530 1534 1537 1541 1544 1546 1548 1549 1551 1553
1488 1490 1480 1478 1478 1480 1482 1486 1483 1475 1468 1472 1479 1481 1478 1479 1478 1479 1481 1483 1484 1486 1487 1488 1489 1489 1491 1496 1501 1507 1512 1516 1521 1525 1529 1533 1536 1540 1543 1545 1547 1548 1550 1552
1489 1480 1473 1475 1476 1478 1477 1479 1477 1476 1473 1475 1481 1490 1484 1480 1480 1479 1479 1480 1482 1483 1485 1487 1488 1489 1491 1495 1500 1506 1511 1514 1520 1524 1528 1532 1536 1539 1541 1543 1545 1547 1549 1550
1480 1471 1471 1473 1472 1471 1478 1465 1465 1470 1482 1493 1488 1505 1491 1483 1481 1479 1479 1480 1481 1483 1485 1487 1489 1490 1493 1496 1500 1505 1510 1513 1518 1523 1527 1530 1533 1536 1539 1541 1544 1546 1548 1549
1476 1467 1469 1471 1465 1463 1467 1460 1465 1471 1482 1495 1494 1502 1496 1484 1482 1480 1478 1479 1480 1482 1484 1486 1489 1491 1494 1497 1501 1504 1509 1513 1517 1522 1526 1529 1532 1535 1538 1541 1543 1545 1547 1548
1467 1461 1462 1461 1456 1455 1457 1464 1472 1481 1491 1507 1500 1502 1499 1486 1479 1476 1476 1477 1479 1482 1484 1487 1489 1492 1495 1497 1501 1505 1509 1513 1517 1521 1524 1527 1531 1534 1536 1539 1541 1544 1546 1547
1471 1461 1456 1454 1458 1455 1458 1478 1499 1504 1513 1512 1499 1499 1494 1475 1471 1471 1472 1474 1477 1480 1483 1486 1489 1491 1494 1497 1501 1504 1508 1512 1516 1519 1522 1526 1529 1532 1535 1537 1540 1542 1544 1545
1481 1477 1457 1451 1455 1461 1461 1473 1499 1511 1515 1510 1499 1499 1484 1468 1466 1467 1469 1471 1475 1479 1481 1484 1487 1490 1493 1497 1500 1503 1507 1511 1515 1518 1521 1525 1528 1531 1534 1536 1538 1540 1542 1544
1476 1473 1451 1447 1446 1451 1461 1470 1472 1491 1500 1510 1504 1492 1477 1465 1465 1466 1468 1471 1473 1476 1479 1482 1486 1489 1492 1495 1498 1502 1506 1510 1514 1517 1520 1524 1526 1529 1532 1534 1537 1539 1541 1543
1460 1469 1454 1447 1446 1448 1453 1460 1477 1491 1507 1513 1504 1496 1488 1471 1468 1467 1468 1469 1471 1474 1477 1480 1483 1487 1490 1493 1497 1501 1505 1508 1512 1515 1518 1521 1524 1527 1530 1533 1535 1537 1539 1541
1453 1467 1462 1455 1457 1458 1457 1463 1471 1485 1491 1506 1512 1498 1466 1464 1463 1464 1465 1466 1469 1471 1474 1477 1481 1485 1488 1492 1496 1499 1503 1507 1510 1513 1516 1519 1522 1525 1528 1531 1533 1535 1537 1539
1454 1466 1473 1463 1451 1446 1451 1458 1469 1484 1489 1491 1499 1491 1456 1457 1458 1460 1462 1464 1466 1469 1471 1474 1478 1482 1487 1490 1493 1497 1501 1504 1508 1511 1514 1517 1520 1523 1526 1528 1531 1533 1535 1537
1453 1467 1480 1475 1467 1456 1456 1456 1460 1470 1480 1489 1494 1483 1456 1456 1457 1458 1459 1461 1463 1466 1469 1472 1476 1479 1483 1487 1491 1494 1498 1502 1505 1508 1511 1514 1517 1520 1523 1525 1528 1530 1532 1534
1450 1464 1475 1481 1474 1463 1461 1458 1458 1467 1482 1483 1478 1472 1462 1459 1457 1456 1456 1457 1460 1462 1466 1469 1473 1476 1480 1484 1487 1491 1494 1499 1502 1506 1509 1511 1514 1517 1520 1523 1525 1528 1529 1531
1453 1465 1464 1462 1457 1455 1455 1455 1456 1461 1465 1471 1467 1464 1459 1455 1454 1452 1453 1455 1457 1459 1463 1466 1469 1473 1476 1480 1483 1487 1491 1495 1499 1502 1505 1508 1511 1514 1517 1520 1522 1524 1526 1528
1457 1463 1463 1464 1456 1455 1456 1452 1453 1455 1456 1458 1458 1459 1451 1450 1450 1451 1452 1453 1454 1456 1459 1463 1466 1469 1472 1476 1479 1483 1486 1490 1494 1497 1500 1504 1507 1510 1513 1516 1518 1521 1523 1525
1460 1464 1469 1472 1463 1459 1465 1456 1453 1455 1452 1453 1459 1456 1450 1451 1450 1450 1450 1451 1452 1454 1456 1459 1461 1464 1467 1470 1474 1478 1482 1486 1490 1493 1497 1500 1503 1506 1509 1511 1514 1516 1518 1520
1458 1465 1471 1473 1471 1478 1462 1449 1448 1451 1452 1451 1450 1450 1448 1447 1449 1450 1450 1451 1452 1453 1454 1456 1458 1461 1464 1467 1471 1475 1479 1482 1486 1489 1493 1496 1499 1501 1504 1507 1509 1511 1513 1515
1451 1460 1469 1474 1476 1470 1457 1450 1450 1453 1456 1452 1450 1449 1448 1447 1449 1451 1451 1451 1451 1452 1453 1453 1455 1457 1461 1464 1468 1472 1475 1479 1482 1485 1488 1491 1494 1497 1498 1501 1503 1506 1508 1510
1453 1456 1465 1470 1473 1475 1461 1449 1445 1449 1457 1451 1448 1449 1448 1448 1455 1455 1452 1450 1450 1450 1450 1451 1453 1455 1458 1461 1465 1468 1471 1475 1477 1480 1483 1487 1490 1492 1494 1496 1499 1501 1503 1505
1462 1463 1465 1468 1470 1464 1453 1447 1445 1459 1459 1451 1449 1448 1448 1451 1453 1454 1452 1452 1451 1450 1450 1451 1452 1454 1457 1460 1463 1466 1469 1471 1474 1478 1481 1484 1486 1488 1490 1492 1494 1496 1498 1500
1465 1467 1467 1468 1470 1466 1451 1447 1451 1453 1450 1449 1448 1448 1448 1449 1451 1452 1452 1452 1451 1451 1451 1451 1452 1454 1456 1459 1461 1464 1466 1469 1473 1475 1478 1481 1483 1485 1486 1488 1490 1492 1493 1494
1462 1463 1463 1464 1465 1457 1452 1451 1450 1449 1448 1448 1448 1449 1448 1449 1451 1453 1454 1454 1454 1455 1454 1454 1454 1456 1458 1460 1462 1464 1467 1469 1471 1473 1475 1478 1480 1482 1483 1484 1486 1488 1489 1490
1459 1457 1460 1461 1458 1455 1452 1451 1450 1448 1448 1448 1448 1448 1448 1450 1453 1454 1455 1456 1457 1457 1457 1457 1457 1458 1460 1462 1464 1465 1467 1469 1470 1472 1474 1476 1478 1478 1480 1481 1483 1484 1485 1486
1459 1458 1460 1460 1457 1455 1454 1453 1452 1451 1451 1450 1451 1451 1451 1452 1454 1455 1457 1458 1458 1459 1459 1460 1460 1461 1462 1464 1466 1468 1469 1469 1470 1472 1473 1474 1475 1477 1478 1479 1480 1481 1482 1483
1457 1457 1458 1458 1455 1456 1456 1454 1453 1453 1454 1454 1454 1454 1455 1455 1456 1458 1460 1461 1461 1462 1463 1463 1464 1464 1466 1467 1468 1470 1471 1471 1472 1472 1473 1474 1475 1476 1477 1477 1478 1478 1480 1480